Location: B?dimalle
(17.1788°N, 80.5377°E)
Time: 12:11:30
(UTC+00:00)

Courier 1B Rocket - Pass Details

Date: 19 December 2025
Orbit: 920 x 1201 km, 28.2° (Epoch: 25 January)

Event Time Altitude Azimuth Distance (km) Brightness Sun altitude
Rises 13:57:10 0° 262° (W) 4,008 9.5 -25.1°
Reaches altitude 10° 14:00:02 10° 267° (W) 3,075 8.6 -25.8°
Maximum altitude 14:07:32 54° 343° (NNW) 1,418 5.7 -27.5°
Enters shadow 14:09:09 47° 21° (NNE) 1,539 5.7 -27.8°
